Starlink 3641

operational
NORAD ID: 51788 Int'l Des: 2022-017 Owner: SPXS Country: US Constellation: starlink
LEOCIRCULAR

Über Starlink 3641

Beschreibung wird geladen...

Live-Position

3D-Globus wird geladen...

Nächste Überflüge

Höhenverlauf

Altitude vs Time

uPlot chart will show altitude changes over time

Zweizeiliger Elementsatz

1 51788U 22017W 25258.70565420 -.00000249 00000-0 24223-5 0 9996
2 51788 53.2178 54.6543 0001388 85.3431 274.7719 15.08841158197508
Epoch: 15. Sept. 2025 • Age: 21 hours

Aktueller Status

Höhe 539.6 km
Geschwindigkeit 7.59 km/s
Subsatellitenpunkt 11.70°N, 141.13°W
Startdatum 25. Feb. 2022
Alter 3.5 years
Typ internet

Technische Details

Klassifizierung Payload
Masse 297.00 kg
Trockenmasse 275.00 kg
Gesamtmasse 297.00 kg
Länge 0.20 m
Durchmesser 2.80 m
Spannweite 9.00 m
Form Box + pan
Hersteller SPXS
Bus-Typ Starlink
Phasenstatus In Orbit
Besitzer/Staat SPXS/US

Große Konstellationen

Loading constellations...